GTI611 TFFF-TJSJ

Flight info

Callsign GTI611
Flight time 1h 12m
Altitude 38000
Route EMOLA2R EMOLA A555 ILURI TROCO3
Aircraft B738/M-SDE2E3FGHIRWXY/LB1

Departure

Time 2026-05-08 11:57
Airport Martinique Aimé Césaire International Airport (TFFF)

Arrival

Time 2026-05-08 13:09
Airport Luis Munoz Marin International Airport (TJSJ)
Time Latitude Longitude Altitude Speed Heading
2026-05-08 11:39 14.59483 -60.99775 12 ft 0 kts 352°
2026-05-08 11:47 14.59477 -60.99774 13 ft 2 kts 352°
2026-05-08 11:47 14.59457 -60.99771 15 ft 3 kts 352°
2026-05-08 11:48 14.59438 -60.99768 12 ft 3 kts 348°
2026-05-08 11:48 14.59419 -60.99762 13 ft 3 kts 323°
2026-05-08 11:48 14.59407 -60.99748 13 ft 3 kts 291°
2026-05-08 11:48 14.59402 -60.99730 13 ft 2 kts 270°
2026-05-08 11:49 14.59402 -60.99715 12 ft 3 kts 270°
2026-05-08 11:49 14.59402 -60.99703 12 ft 0 kts 270°
2026-05-08 11:51 14.59401 -60.99724 12 ft 8 kts 263°
2026-05-08 11:51 14.59386 -60.99817 12 ft 18 kts 260°
2026-05-08 11:51 14.59365 -60.99948 11 ft 16 kts 262°
2026-05-08 11:51 14.59331 -61.00053 11 ft 16 kts 232°
2026-05-08 11:52 14.59301 -61.00163 11 ft 18 kts 259°
2026-05-08 11:52 14.59275 -61.00317 10 ft 24 kts 260°
2026-05-08 11:52 14.59246 -61.00488 10 ft 23 kts 261°
2026-05-08 11:52 14.59217 -61.00649 10 ft 22 kts 259°
2026-05-08 11:53 14.59189 -61.00812 10 ft 24 kts 260°
2026-05-08 11:53 14.59159 -61.00987 10 ft 25 kts 261°
2026-05-08 11:53 14.59125 -61.01163 10 ft 24 kts 257°
2026-05-08 11:53 14.59104 -61.01309 12 ft 15 kts 260°
2026-05-08 11:54 14.59044 -61.01358 10 ft 11 kts 174°
2026-05-08 11:54 14.58967 -61.01350 12 ft 11 kts 178°
2026-05-08 11:54 14.58919 -61.01410 11 ft 14 kts 257°
2026-05-08 11:54 14.58898 -61.01537 10 ft 23 kts 261°
2026-05-08 11:55 14.58872 -61.01694 8 ft 16 kts 260°
2026-05-08 11:55 14.58901 -61.01783 7 ft 8 kts 302°
2026-05-08 11:55 14.58878 -61.01818 7 ft 8 kts 182°
2026-05-08 11:55 14.58856 -61.01775 7 ft 8 kts 82°
2026-05-08 11:56 14.58874 -61.01665 10 ft 38 kts 79°
2026-05-08 11:56 14.58961 -61.01164 12 ft 101 kts 79°
2026-05-08 11:56 14.59117 -61.00281 88 ft 140 kts 79°
2026-05-08 11:56 14.59309 -60.99274 557 ft 145 kts 79°
2026-05-08 11:57 14.59493 -60.98239 1101 ft 144 kts 78°
2026-05-08 11:57 14.59669 -60.97245 1637 ft 147 kts 79°
2026-05-08 11:57 14.59844 -60.96150 2053 ft 169 kts 78°
2026-05-08 11:57 14.60068 -60.94843 2311 ft 197 kts 79°
2026-05-08 11:58 14.60314 -60.93361 2543 ft 218 kts 79°
2026-05-08 11:58 14.60587 -60.91722 2804 ft 244 kts 79°
2026-05-08 11:58 14.60922 -60.89972 3461 ft 251 kts 71°
2026-05-08 11:59 14.63476 -60.87647 5060 ft 262 kts 18°
2026-05-08 11:59 14.65315 -60.87544 5833 ft 271 kts 354°
2026-05-08 11:59 14.67161 -60.87979 6664 ft 274 kts 348°
2026-05-08 11:59 14.68993 -60.88487 7390 ft 279 kts 347°
2026-05-08 12:00 14.70898 -60.89027 8191 ft 282 kts 347°
2026-05-08 12:00 14.72772 -60.89554 8994 ft 285 kts 347°
2026-05-08 12:00 14.74699 -60.90088 9816 ft 289 kts 347°
2026-05-08 12:00 14.76688 -60.90630 10487 ft 298 kts 347°
2026-05-08 12:01 14.78755 -60.91189 10687 ft 323 kts 347°
2026-05-08 12:01 14.80977 -60.91793 11182 ft 333 kts 347°
2026-05-08 12:01 14.83227 -60.92407 11962 ft 336 kts 346°
2026-05-08 12:01 14.85493 -60.93024 12735 ft 339 kts 346°
2026-05-08 12:02 14.87799 -60.93649 13392 ft 346 kts 346°
2026-05-08 12:02 14.90122 -60.94278 14264 ft 344 kts 345°
2026-05-08 12:02 14.92319 -60.95269 14959 ft 351 kts 326°
2026-05-08 12:02 14.94056 -60.97048 15697 ft 355 kts 307°
2026-05-08 12:03 14.95180 -60.99345 16380 ft 363 kts 290°
2026-05-08 12:03 14.95935 -61.01857 17054 ft 369 kts 288°
2026-05-08 12:03 14.96643 -61.04422 17711 ft 373 kts 288°
2026-05-08 12:03 14.97348 -61.07025 18349 ft 379 kts 288°
2026-05-08 12:04 14.98065 -61.09660 18914 ft 382 kts 288°
2026-05-08 12:04 14.98797 -61.12320 19479 ft 386 kts 289°
2026-05-08 12:04 14.99544 -61.15002 20044 ft 390 kts 289°
2026-05-08 12:04 15.00305 -61.17714 20614 ft 394 kts 289°
2026-05-08 12:05 15.01076 -61.20451 21169 ft 398 kts 289°
2026-05-08 12:05 15.01856 -61.23215 21727 ft 402 kts 289°
2026-05-08 12:05 15.02645 -61.26006 22269 ft 406 kts 290°
2026-05-08 12:05 15.03441 -61.28827 22798 ft 410 kts 290°
2026-05-08 12:06 15.04245 -61.31674 23335 ft 414 kts 290°
2026-05-08 12:06 15.05056 -61.34550 23803 ft 418 kts 290°
2026-05-08 12:06 15.05870 -61.37443 24299 ft 420 kts 290°
2026-05-08 12:06 15.06685 -61.40345 24821 ft 420 kts 289°
2026-05-08 12:07 15.07493 -61.43251 25334 ft 421 kts 289°
2026-05-08 12:07 15.08311 -61.46168 25787 ft 424 kts 289°
2026-05-08 12:07 15.09137 -61.49102 26244 ft 426 kts 289°
2026-05-08 12:07 15.09959 -61.52011 26680 ft 428 kts 289°
2026-05-08 12:08 15.10793 -61.54969 27137 ft 429 kts 288°
2026-05-08 12:08 15.11631 -61.57944 27569 ft 431 kts 288°
2026-05-08 12:08 15.12470 -61.60932 27993 ft 433 kts 288°
2026-05-08 12:08 15.13395 -61.63901 28394 ft 434 kts 296°
2026-05-08 12:09 15.15006 -61.66522 28770 ft 433 kts 311°
2026-05-08 12:09 15.17010 -61.68844 29204 ft 434 kts 313°
2026-05-08 12:09 15.19059 -61.71149 29563 ft 436 kts 313°
2026-05-08 12:09 15.21127 -61.73467 29894 ft 439 kts 313°
2026-05-08 12:10 15.23199 -61.75803 30210 ft 442 kts 313°
2026-05-08 12:10 15.25275 -61.78163 30526 ft 443 kts 312°
2026-05-08 12:10 15.27346 -61.80534 30850 ft 444 kts 312°
2026-05-08 12:10 15.29418 -61.82916 31171 ft 445 kts 312°
2026-05-08 12:11 15.31486 -61.85299 31577 ft 444 kts 312°
2026-05-08 12:11 15.33543 -61.87673 32062 ft 441 kts 312°
2026-05-08 12:11 15.35583 -61.90028 32544 ft 438 kts 311°
2026-05-08 12:11 15.37616 -61.92374 32963 ft 437 kts 312°
2026-05-08 12:12 15.39646 -61.94719 33312 ft 437 kts 313°
2026-05-08 12:12 15.41677 -61.97064 33700 ft 437 kts 312°
2026-05-08 12:12 15.43700 -61.99400 34131 ft 434 kts 312°
2026-05-08 12:12 15.45713 -62.01725 34498 ft 433 kts 312°
2026-05-08 12:13 15.47724 -62.04050 34778 ft 434 kts 313°
2026-05-08 12:13 15.49716 -62.06353 34991 ft 436 kts 313°
2026-05-08 12:13 15.51738 -62.08691 35291 ft 436 kts 313°
2026-05-08 12:13 15.53757 -62.11027 35649 ft 434 kts 313°
2026-05-08 12:14 15.55770 -62.13358 35990 ft 433 kts 313°
2026-05-08 12:14 15.57777 -62.15681 36263 ft 433 kts 313°
2026-05-08 12:14 15.59789 -62.18010 36542 ft 433 kts 313°
2026-05-08 12:14 15.61799 -62.20338 36850 ft 433 kts 313°
2026-05-08 12:15 15.63804 -62.22663 37149 ft 432 kts 314°
2026-05-08 12:15 15.65806 -62.24987 37443 ft 432 kts 314°
2026-05-08 12:15 15.67805 -62.27307 37725 ft 431 kts 314°
2026-05-08 12:15 15.69804 -62.29627 38001 ft 431 kts 314°
2026-05-08 12:16 15.73835 -62.34307 38042 ft 437 kts 314°
2026-05-08 12:16 15.77871 -62.38999 38028 ft 433 kts 314°
2026-05-08 12:17 15.81851 -62.43631 38038 ft 428 kts 314°
2026-05-08 12:17 15.85817 -62.48246 38048 ft 428 kts 315°
2026-05-08 12:18 15.89779 -62.52859 38028 ft 428 kts 315°
2026-05-08 12:18 15.93734 -62.57470 38040 ft 427 kts 315°
2026-05-08 12:19 15.97665 -62.62055 38041 ft 427 kts 315°
2026-05-08 12:19 16.01648 -62.66703 38042 ft 428 kts 315°
2026-05-08 12:20 16.05606 -62.71324 38041 ft 428 kts 315°
2026-05-08 12:20 16.09569 -62.75955 38042 ft 429 kts 315°
2026-05-08 12:21 16.13511 -62.80565 38041 ft 429 kts 315°
2026-05-08 12:21 16.17482 -62.85212 38038 ft 430 kts 315°
2026-05-08 12:22 16.21457 -62.89866 38048 ft 430 kts 315°
2026-05-08 12:22 16.25432 -62.94524 38045 ft 431 kts 315°
2026-05-08 12:23 16.29410 -62.99187 38049 ft 431 kts 315°
2026-05-08 12:23 16.33173 -63.04072 38049 ft 434 kts 310°
2026-05-08 12:24 16.36666 -63.09198 38048 ft 434 kts 309°
2026-05-08 12:24 16.40154 -63.14330 38029 ft 434 kts 309°
2026-05-08 12:25 16.43677 -63.19433 38041 ft 433 kts 310°
2026-05-08 12:25 16.47192 -63.24486 38048 ft 433 kts 310°
2026-05-08 12:26 16.50731 -63.29564 38040 ft 433 kts 310°
2026-05-08 12:26 16.54272 -63.34650 38044 ft 433 kts 310°
2026-05-08 12:27 16.57808 -63.39733 38040 ft 433 kts 310°
2026-05-08 12:27 16.61341 -63.44818 38029 ft 433 kts 311°
2026-05-08 12:28 16.64875 -63.49906 38037 ft 433 kts 311°
2026-05-08 12:28 16.68407 -63.54995 38046 ft 433 kts 311°
2026-05-08 12:29 16.71941 -63.60090 38046 ft 434 kts 311°
2026-05-08 12:29 16.75480 -63.65197 38044 ft 434 kts 310°
2026-05-08 12:30 16.79020 -63.70308 38046 ft 435 kts 311°
2026-05-08 12:30 16.82562 -63.75427 38033 ft 435 kts 311°
2026-05-08 12:31 16.86105 -63.80550 38047 ft 435 kts 311°
2026-05-08 12:31 16.89654 -63.85672 38045 ft 436 kts 311°
2026-05-08 12:32 16.92602 -63.89939 38046 ft 436 kts 311°
2026-05-08 12:32 16.96720 -63.95909 38049 ft 436 kts 311°
2026-05-08 12:33 17.00266 -64.01055 38038 ft 436 kts 311°
2026-05-08 12:33 17.03234 -64.05365 38032 ft 436 kts 311°
2026-05-08 12:34 17.06778 -64.10514 38048 ft 436 kts 311°
2026-05-08 12:34 17.10330 -64.15677 37634 ft 442 kts 311°
2026-05-08 12:35 17.12118 -64.18277 37130 ft 439 kts 311°
2026-05-08 12:35 17.13871 -64.20831 36600 ft 437 kts 311°
2026-05-08 12:35 17.15643 -64.23411 36022 ft 436 kts 311°
2026-05-08 12:35 17.17413 -64.25990 35433 ft 436 kts 311°
2026-05-08 12:36 17.19174 -64.28556 35010 ft 432 kts 311°
2026-05-08 12:36 17.20918 -64.31101 34563 ft 429 kts 311°
2026-05-08 12:36 17.22652 -64.33631 34107 ft 426 kts 312°
2026-05-08 12:36 17.24372 -64.36140 33614 ft 423 kts 311°
2026-05-08 12:37 17.26080 -64.38632 33146 ft 420 kts 311°
2026-05-08 12:37 17.27774 -64.41104 32705 ft 416 kts 311°
2026-05-08 12:37 17.29454 -64.43558 32274 ft 413 kts 311°
2026-05-08 12:37 17.31122 -64.45993 31843 ft 410 kts 312°
2026-05-08 12:38 17.32778 -64.48412 31426 ft 408 kts 312°
2026-05-08 12:38 17.34425 -64.50818 31006 ft 405 kts 312°
2026-05-08 12:38 17.36062 -64.53210 30566 ft 404 kts 312°
2026-05-08 12:38 17.37696 -64.55598 30137 ft 402 kts 312°
2026-05-08 12:39 17.39322 -64.57975 29645 ft 401 kts 311°
2026-05-08 12:39 17.40937 -64.60339 29196 ft 397 kts 311°
2026-05-08 12:39 17.42537 -64.62682 28753 ft 394 kts 311°
2026-05-08 12:39 17.44123 -64.65005 28321 ft 391 kts 311°
2026-05-08 12:40 17.45697 -64.67311 27897 ft 388 kts 311°
2026-05-08 12:40 17.47257 -64.69598 27467 ft 385 kts 311°
2026-05-08 12:40 17.48808 -64.71871 27039 ft 382 kts 310°
2026-05-08 12:40 17.50342 -64.74127 26631 ft 379 kts 310°
2026-05-08 12:41 17.51866 -64.76369 26231 ft 376 kts 310°
2026-05-08 12:41 17.53380 -64.78595 25821 ft 374 kts 310°
2026-05-08 12:41 17.54887 -64.80806 25416 ft 372 kts 310°
2026-05-08 12:41 17.56386 -64.83006 24994 ft 370 kts 309°
2026-05-08 12:42 17.57879 -64.85196 24589 ft 368 kts 309°
2026-05-08 12:42 17.59364 -64.87376 24178 ft 367 kts 309°
2026-05-08 12:42 17.60841 -64.89545 23761 ft 365 kts 309°
2026-05-08 12:42 17.62314 -64.91709 23310 ft 364 kts 309°
2026-05-08 12:43 17.63777 -64.93859 22878 ft 361 kts 309°
2026-05-08 12:43 17.65226 -64.95991 22457 ft 358 kts 309°
2026-05-08 12:43 17.66666 -64.98109 22054 ft 355 kts 308°
2026-05-08 12:43 17.68093 -65.00209 21644 ft 352 kts 308°
2026-05-08 12:44 17.69509 -65.02294 21261 ft 350 kts 308°
2026-05-08 12:44 17.70915 -65.04363 20871 ft 347 kts 308°
2026-05-08 12:44 17.72311 -65.06420 20493 ft 345 kts 308°
2026-05-08 12:44 17.73700 -65.08467 20106 ft 343 kts 308°
2026-05-08 12:45 17.75083 -65.10505 19724 ft 342 kts 308°
2026-05-08 12:45 17.76439 -65.12503 19334 ft 341 kts 308°
2026-05-08 12:45 17.77810 -65.14525 18954 ft 339 kts 307°
2026-05-08 12:45 17.79175 -65.16540 18578 ft 338 kts 308°
2026-05-08 12:46 17.80538 -65.18551 18148 ft 338 kts 307°
2026-05-08 12:46 17.81902 -65.20564 17675 ft 338 kts 308°
2026-05-08 12:46 17.83259 -65.22568 17286 ft 336 kts 308°
2026-05-08 12:46 17.84606 -65.24558 16899 ft 333 kts 307°
2026-05-08 12:47 17.85943 -65.26534 16523 ft 331 kts 308°
2026-05-08 12:47 17.87269 -65.28496 16155 ft 329 kts 307°
2026-05-08 12:47 17.88590 -65.30448 15781 ft 327 kts 308°
2026-05-08 12:47 17.89900 -65.32386 15416 ft 325 kts 307°
2026-05-08 12:48 17.91203 -65.34315 15053 ft 323 kts 307°
2026-05-08 12:48 17.92500 -65.36233 14686 ft 321 kts 307°
2026-05-08 12:48 17.93789 -65.38143 14332 ft 320 kts 307°
2026-05-08 12:48 17.95076 -65.40048 13956 ft 319 kts 308°
2026-05-08 12:49 17.96355 -65.41943 13570 ft 317 kts 307°
2026-05-08 12:49 17.97629 -65.43830 13182 ft 315 kts 307°
2026-05-08 12:49 17.98892 -65.45703 12810 ft 313 kts 307°
2026-05-08 12:49 18.00146 -65.47562 12451 ft 311 kts 308°
2026-05-08 12:50 18.01391 -65.49410 12094 ft 309 kts 308°
2026-05-08 12:50 18.02629 -65.51247 11740 ft 307 kts 307°
2026-05-08 12:50 18.03859 -65.53072 11389 ft 305 kts 307°
2026-05-08 12:50 18.05082 -65.54887 11046 ft 304 kts 307°
2026-05-08 12:51 18.06282 -65.56695 10831 ft 301 kts 307°
2026-05-08 12:51 18.08639 -65.60310 10416 ft 303 kts 306°
2026-05-08 12:51 18.09823 -65.62126 10208 ft 298 kts 306°
2026-05-08 12:52 18.10984 -65.63908 9995 ft 293 kts 305°
2026-05-08 12:52 18.13245 -65.67377 9570 ft 284 kts 306°
2026-05-08 12:52 18.14359 -65.69086 9380 ft 284 kts 306°
2026-05-08 12:53 18.15481 -65.70804 9184 ft 286 kts 306°
2026-05-08 12:53 18.16611 -65.72536 8978 ft 288 kts 307°
2026-05-08 12:53 18.17747 -65.74277 8804 ft 290 kts 307°
2026-05-08 12:53 18.18892 -65.76027 8599 ft 291 kts 308°
2026-05-08 12:54 18.20148 -65.77669 8403 ft 286 kts 313°
2026-05-08 12:54 18.21460 -65.79226 8214 ft 283 kts 314°
2026-05-08 12:54 18.22767 -65.80763 8012 ft 280 kts 314°
2026-05-08 12:54 18.24053 -65.82287 7828 ft 277 kts 314°
2026-05-08 12:55 18.25327 -65.83806 7622 ft 277 kts 314°
2026-05-08 12:55 18.26601 -65.85337 7457 ft 278 kts 313°
2026-05-08 12:55 18.27876 -65.86875 7263 ft 280 kts 313°
2026-05-08 12:55 18.29159 -65.88429 7075 ft 282 kts 313°
2026-05-08 12:56 18.30448 -65.89990 6873 ft 283 kts 313°
2026-05-08 12:56 18.31738 -65.91555 6706 ft 283 kts 313°
2026-05-08 12:56 18.33029 -65.93124 6494 ft 283 kts 313°
2026-05-08 12:56 18.34305 -65.94674 6272 ft 277 kts 313°
2026-05-08 12:57 18.35540 -65.96213 6083 ft 274 kts 307°
2026-05-08 12:57 18.36228 -65.98084 5853 ft 279 kts 277°
2026-05-08 12:57 18.36298 -66.00128 5654 ft 281 kts 270°
2026-05-08 12:57 18.36285 -66.02190 5421 ft 283 kts 270°
2026-05-08 12:58 18.36268 -66.04235 5186 ft 284 kts 270°
2026-05-08 12:58 18.36256 -66.06317 4943 ft 283 kts 270°
2026-05-08 12:58 18.36253 -66.08381 4710 ft 281 kts 270°
2026-05-08 12:58 18.36253 -66.10425 4465 ft 278 kts 270°
2026-05-08 12:59 18.36257 -66.12450 4244 ft 275 kts 270°
2026-05-08 12:59 18.36260 -66.14456 3996 ft 273 kts 270°
2026-05-08 12:59 18.36291 -66.16443 3788 ft 271 kts 277°
2026-05-08 12:59 18.36956 -66.18255 3561 ft 265 kts 309°
2026-05-08 13:00 18.38337 -66.19476 3342 ft 258 kts 336°
2026-05-08 13:00 18.40020 -66.19993 3140 ft 250 kts 358°
2026-05-08 13:00 18.41744 -66.20024 2949 ft 247 kts
2026-05-08 13:00 18.43450 -66.19989 2713 ft 242 kts
2026-05-08 13:01 18.45102 -66.20219 2519 ft 242 kts 339°
2026-05-08 13:01 18.46599 -66.20952 2440 ft 233 kts 338°
2026-05-08 13:01 18.48048 -66.21653 2355 ft 226 kts 332°
2026-05-08 13:01 18.49170 -66.22759 2324 ft 222 kts 305°
2026-05-08 13:02 18.49815 -66.24246 2307 ft 226 kts 283°
2026-05-08 13:02 18.49904 -66.25892 2316 ft 227 kts 266°
2026-05-08 13:02 18.49818 -66.27558 2304 ft 228 kts 262°
2026-05-08 13:02 18.49242 -66.29081 2310 ft 223 kts 229°
2026-05-08 13:03 18.48083 -66.30124 2304 ft 216 kts 204°
2026-05-08 13:03 18.46670 -66.30540 2336 ft 211 kts 180°
2026-05-08 13:03 18.45229 -66.30278 2306 ft 208 kts 154°
2026-05-08 13:03 18.44075 -66.29419 2292 ft 200 kts 129°
2026-05-08 13:04 18.43349 -66.28184 2320 ft 201 kts 109°
2026-05-08 13:04 18.43089 -66.26730 2291 ft 206 kts 89°
2026-05-08 13:04 18.43174 -66.25248 2310 ft 201 kts 88°
2026-05-08 13:04 18.43232 -66.23783 2294 ft 199 kts 88°
2026-05-08 13:05 18.43292 -66.22336 2328 ft 199 kts 89°
2026-05-08 13:05 18.43341 -66.20864 2311 ft 201 kts 88°
2026-05-08 13:05 18.43389 -66.19384 2289 ft 205 kts 90°
2026-05-08 13:05 18.43392 -66.17829 2350 ft 220 kts 90°
2026-05-08 13:06 18.43391 -66.16226 2241 ft 221 kts 91°
2026-05-08 13:06 18.43382 -66.14642 2080 ft 211 kts 91°
2026-05-08 13:06 18.43380 -66.13128 1915 ft 201 kts 90°
2026-05-08 13:06 18.43374 -66.11687 1776 ft 192 kts 91°
2026-05-08 13:07 18.43370 -66.10299 1615 ft 186 kts 91°
2026-05-08 13:07 18.43371 -66.08980 1488 ft 175 kts 91°
2026-05-08 13:07 18.43368 -66.07718 1240 ft 168 kts 91°
2026-05-08 13:07 18.43368 -66.06541 1058 ft 153 kts 91°
2026-05-08 13:08 18.43368 -66.05456 853 ft 143 kts 90°
2026-05-08 13:08 18.43366 -66.04415 664 ft 142 kts 90°
2026-05-08 13:08 18.43365 -66.03383 466 ft 139 kts 90°
2026-05-08 13:08 18.43364 -66.02383 266 ft 135 kts 90°
2026-05-08 13:09 18.43356 -66.01381 69 ft 139 kts 90°
2026-05-08 13:09 18.43355 -66.00432 18 ft 119 kts 90°
2026-05-08 13:09 18.43353 -65.99785 19 ft 56 kts 91°
2026-05-08 13:09 18.43363 -65.99596 21 ft 13 kts 73°
2026-05-08 13:10 18.43407 -65.99548 19 ft 8 kts
2026-05-08 13:10 18.43470 -65.99551 19 ft 10 kts
2026-05-08 13:10 18.43549 -65.99543 18 ft 13 kts 11°
2026-05-08 13:10 18.43643 -65.99515 18 ft 15 kts
2026-05-08 13:11 18.43712 -65.99509 18 ft 7 kts 35°
2026-05-08 13:11 18.43722 -65.99463 18 ft 7 kts 89°
2026-05-08 13:11 18.43722 -65.99440 18 ft 0 kts 91°